Regional Weather Roundup
Issued by NWS State College, PA

Home | Current Version | Previous Version | Text Only | Print | Product List | Glossary Off
Versions: 1 2 3 4 5 6 7 8 9 10 11 12 13 14 15 16 17 18 19 20 21 22 23 24 25 26 27 28 29 30 31 32 33 34 35 36 37 38 39 40 41 42 43 44 45 46 47 48 49 50

000
ASUS41 KCTP 241803
RWRCTP
REGIONAL WEATHER ROUNDUP
NATIONAL WEATHER SERVICE STATE COLLEGE PA
200 PM EDT SUN SEP 24 2017

Note: "fair" indicates few or no clouds below 12,000 feet with no
significant weather and/or obstructions to visibility.

* = STATION THAT DOES NOT REPORT PRECIPITATION /E.G. RAIN...SNOW...ETC/
    THUNDER OR FOG.

PAZ002>004-007>009-013>016-020>023-029>032-241900-
WESTERN PENNSYLVANIA

CITY           SKY/WX    TMP DP  RH WIND       PRES   REMARKS
ERIE           SUNNY     80  63  55 N8        30.15F
MEADVILLE      MOSUNNY   89  64  43 NE10      30.17F
FRANKLIN*      SUNNY     86  64  48 NE7       30.18F
NEW CASTLE     FAIR      89  65  44 VRB7      30.15F
BEAVER COUNTY  SUNNY     88  61  40 E7        30.16F
BUTLER*        SUNNY     85  65  51 E9        30.15F
PITTSBURGH INT PTSUNNY   88  61  40 E8        30.14F
PITTSBURGH     SUNNY     86  60  41 E6        30.14F
INDIANA*       SUNNY     84  64  51 VRB6G13   30.18F
LATROBE        SUNNY     84  63  48 CALM      30.15F
WASHINGTON CO* SUNNY     84  61  45 CALM      30.15F
$$

PAZ004>006-010>012-017>019-024>028-033>037-041-042-045-046-049>053-241900-
CENTRAL PENNSYLVANIA

CITY           SKY/WX    TMP DP  RH WIND       PRES   REMARKS
BRADFORD       SUNNY     83  64  52 VRB6      30.21F
DUBOIS         SUNNY     86  59  39 E13       30.18F
CLEARFIELD     MOSUNNY   88  60  38 NE13      30.17F
JOHNSTOWN      MOSUNNY   83  62  49 NE9       30.19F
ALTOONA        SUNNY     84  66  54 N9        30.16F
STATE COLLEGE  MOSUNNY   86  64  48 NE9G16    30.15F
WILLIAMSPORT   MOSUNNY   93  63  36 NE12      30.08F
SELINSGROVE    SUNNY     87  70  56 CALM      30.10F
FT INDIANTOWN  SUNNY     89  67  48 NE6       30.08F
CAPITAL CITY   MOSUNNY   88  66  48 NW5       30.08F
HARRISBURG     MOSUNNY   88  67  49 CALM      30.07F
YORK           SUNNY     86  67  52 E6        30.09F
$$

PAZ038>040-043-044-047-048-054-055-060>062-067>071-241900-
EASTERN PENNSYLVANIA

CITY           SKY/WX    TMP DP  RH WIND       PRES   REMARKS
SCRANTON       MOSUNNY   87  66  49 CALM      30.11F
MOUNT POCONO   SUNNY     83  63  50 NE9       30.16F
ALLENTOWN      SUNNY     89  65  44 NE5       30.07F
QUAKERTOWN*    CLEAR     86  66  51 N5        30.09F
READING        SUNNY     88  67  49 VRB3      30.06F
LANCASTER      SUNNY     89  66  46 NE8       30.07F
COATESVILLE    CLEAR     86  64  48 CALM      30.10S
POTTSTOWN      SUNNY     86  67  52 N7        30.08F
BLUE BELL      SUNNY     86  64  48 CALM      30.07F
DOYLESTOWN     SUNNY     88  67  49 CALM      30.06F
WILLOW GROVE   NOT AVBL
NORTH PHILA    SUNNY     90  65  43 SE5       30.06F
PHILADELPHIA   MOSUNNY   90  63  40 E12       30.04F
$$




USA.gov is the U.S. government's official web portal to all federal, state and local government web resources and services.